www.pogodaiklimat.ru

Погода и климат >> Архив погоды >> Канада >> Альберта >> Шулер Радар


ПОГОДА на Шулер Радаре

  • Прогноз погоды на Шулер Радаре
  • Монитор погоды на Шулер Радаре

АРХИВ ПОГОДЫ на Шулер Радаре

Время (UTC), дата Ветер
(напр.,м/с)
 
Видим.   Явления Облачность Т
(С)
Тd
(С)
f
(%)
Тe
(С)
Тes
(С)
Комфортность P
(гПа)
Po
(гПа)
Тmin
(С)
Tmax
(С)
R
(мм)
R24
(мм)
S
(см)
12 17.04 СЗ 3 н/о {осадки} н/о +1.7 -1.0 82 -3 -3 1013.7 1006.5 -0.3 2
15 17.04 н/о н/о +4.0 -2.9 61 1015.8 1008.6
18 17.04 С 4 н/о н/о +8.3 -4.7 39 +6 +6 1016.8 1009.6 -0.3 +8.4
21 17.04 СЗ 3 н/о н/о +9.7 -6.8 31 +8 +8 1018.0 1010.8
00 18.04 Ю 3 н/о н/о +3.8 -3.1 61 0 0 1020.5 1013.3 -0.3 +10.0
03 18.04 СВ 1 н/о н/о -0.1 -3.6 77 -2 -2 1023.1 1015.9
06 18.04 СВ 1 н/о н/о -2.5 -4.1 89 -3 -3 1024.0 1016.8 -2.6 +10.0 10
09 18.04 В 1 н/о н/о -2.6 -4.7 85 -3 -3 1025.2 1018.0
12 18.04 СВ 1 н/о н/о +2.2 -2.3 72 +2 +2 1027.1 1019.8 -3.9 +10.0
15 18.04 Ю 2 н/о н/о +10.4 -2.1 42 +9 +9 1025.5 1018.3
18 18.04 Ю 5 н/о н/о +11.5 -3.0 36 +10 +10 1024.2 1017.0 -3.9 +12.7
21 18.04 Ю 7 н/о н/о +9.6 -4.6 36 +6 +6 1023.1 1015.9
00 19.04 Ю 4 н/о н/о +5.9 -2.8 54 +3 +3 1022.2 1015.0 -3.9 +12.7
03 19.04 ЮВ 5 н/о н/о +4.0 -0.2 74 -1 -1 1019.5 1012.4
06 19.04 Ю 6 н/о {осадки} н/о +3.8 +2.5 91 -2 -2 1013.5 1006.4 -3.9 +12.7 4 6
09 19.04 Ю 9 н/о {осадки} н/о +8.1 +6.8 91 +3 +3 1009.2 1002.1 7
12 19.04 ЮЗ 8 н/о {осадки} н/о +9.5 +8.5 93 +5 +5 1008.7 1001.6 +2.8 +12.7 7
15 19.04 ЮЗ 9 н/о н/о +11.2 +10.2 94 +7 +7 1007.6 1000.5
18 19.04 ЮЗ 8 н/о н/о +11.9 +10.3 90 +9 +9 1008.4 1001.3 +2.8 +12.0
21 19.04 Ю 5 н/о н/о +11.6 +10.6 94 +9 +9 1008.0 1001.0
00 20.04 ЮЗ 5 н/о н/о +10.7 +10.3 97 +8 +8 1009.9 1002.9 +3.7 +12.1
03 20.04 ЮЗ 6 н/о н/о +10.6 +10.2 97 +7 +7 1010.8 1003.8
06 20.04 ЮЗ 4 н/о н/о +9.7 +9.3 97 +7 +7 1011.8 1004.8 +3.7 +12.1 10
09 20.04 СВ 5 н/о н/о +5.3 +4.8 97 +1 +1 1013.2 1006.1 2
12 20.04 СВ 3 н/о {осадки} н/о +5.0 +4.7 98 +1 +1 1013.0 1005.9 +4.7 +12.1 11
15 20.04 СВ 3 н/о н/о +5.6 +5.3 98 +2 +2 1015.4 1008.3 5
18 20.04 СВ 4 н/о {осадки} н/о +5.7 +5.2 97 +2 +2 1018.2 1011.1 +4.7 +9.8 8
21 20.04 СВ 3 н/о н/о +5.7 +5.0 95 +2 +2 1020.2 1013.0 0.2
00 21.04 СВ 3 н/о {осадки} н/о +4.7 +4.4 98 +1 +1 1021.5 1014.3 +4.7 +5.9 0.5
03 21.04 С 2 н/о н/о +4.7 +4.5 99 +2 +2 1021.4 1014.2 1
06 21.04 З 1 н/о {осадки} н/о +5.4 +5.2 99 +5 +5 1020.3 1013.1 +4.4 +9.8 2 10
09 21.04 Ю 6 н/о н/о +14.5 +13.8 96 +12 +12 1019.7 1012.6 0.5
12 21.04 Ю 4 н/о {осадки} н/о +15.4 +14.8 96 +14 +14 1019.9 1012.8 +4.4 +9.8 1
15 21.04 Ю 8 н/о н/о +15.3 +14.3 94 +13 +13 1020.9 1013.8 0.2
18 21.04 Ю 7 н/о {осадки} н/о +14.5 +13.6 94 +12 +12 1020.1 1013.0 +4.4 +17.2 0.2
21 21.04 Ю 8 н/о {осадки} н/о +13.0 +12.1 94 +10 +10 1019.7 1012.6 2
00 22.04 З 2 н/о {осадки} н/о +11.2 +10.6 96 +10 +10 1020.7 1013.6 +5.4 +17.2 2
03 22.04 З 3 н/о н/о +10.6 +10.3 98 +9 +9 1020.9 1013.8
06 22.04 ЮЗ 3 н/о н/о +9.7 +9.1 96 +8 +8 1020.9 1013.8 +5.4 +17.2 18
09 22.04 Ю 1 н/о н/о +8.3 +8.0 98 +7 +7 1021.6 1014.5
12 22.04 В 1 н/о н/о +9.7 +9.4 98 +10 +10 1022.0 1014.9 +8.2 +17.2
15 22.04 С 3 н/о н/о +12.8 +11.7 93 +12 +12 1022.7 1015.6
18 22.04 СВ 3 н/о н/о +13.3 +11.6 89 +12 +12 1022.1 1015.0 +8.2 +13.3
21 22.04 В 2 н/о н/о +13.7 +9.4 75 +13 +13 1021.9 1014.8
00 23.04 СВ 5 н/о н/о +9.3 +8.0 92 +6 +6 1022.8 1015.7 +8.2 +14.1
03 23.04 СВ 4 н/о н/о +6.1 +4.6 90 +2 +2 1023.4 1016.3
06 23.04 СВ 5 н/о {осадки} н/о +4.4 +2.5 87 -0 -0 1022.0 1014.9 +4.4 +14.1 0.6
09 23.04 СВ 5 н/о {осадки} н/о +3.6 +2.1 90 -2 -2 1021.1 1014.0 2
12 23.04 СВ 5 н/о {осадки} н/о +3.2 +2.6 96 -2 -2 1019.7 1012.5 +2.9 +14.1 7
15 23.04 СВ 5 н/о {осадки} н/о +5.3 +4.5 95 0 0 1017.7 1010.5 2
18 23.04 СВ 5 н/о {осадки} н/о +5.1 +4.6 97 0 0 1015.0 1007.9 +2.9 +5.4 4
21 23.04 С 7 н/о н/о +3.7 +2.9 95 -3 -3 1013.4 1006.2 0.2
00 24.04 СВ 4 н/о {осадки} н/о +2.7 +2.1 96 -2 -2 1011.2 1004.1 +2.6 +5.4 4
03 24.04 н/о н/о +2.2 +1.8 97 1009.7 1002.6 0.7
06 24.04 С 2 н/о {осадки} н/о +1.8 +1.2 96 -2 -2 1007.7 1000.6 +1.8 +5.4 2 9

 

Местоположение метеостанции Шулер Радар (Альберта, Канада): широта 50.31 долгота -110.20 высота над уровнем моря 863 м.

В архиве по умолчанию представлена погода на Шулер Радаре за последнюю неделю. Архивные данные за месяц целиком и за предыдущие месяцы, начиная с января 2011 года, Вы можете получить, выбрав интересующий диапазон дат из раскрывающегося списка и нажав кнопку "Ввод!".


*Определитесь, кто Вы:
робот инопланетянин человек

Внимание! Время в таблицах - всемирное. Для получения местного времени необходимо прибавить поправку, которая равна -7 ч.

Смотрите также архив погоды в соседних городах и на ближайших метеорологических станциях:

Погода в Шулере (Альберта, Канада) (14 км)
Погода в Ирвайне (Альберта, Канада) (37 км)
Погода в Медисин-Хате (Альберта, Канада) (48 км)
Погода в Свартеваге (Нунавут, Канада) (48 км)
Погода в Севен Персон (Альберта, Канада) (66 км)
Погода в Мейпл Крик (Саскачеван, Канада) (73 км)
Погода в Атли (Альберта, Канада) (79 км)
Погода в Лидере (Саскачеван, Канада) (82 км)
Погода в Долине Акадия (Альберта, Канада) (83 км)
Погода в Парке Сайпресс-Хилc (Альберта, Канада) (89 км)

Пояснения к столбцам:

Ветер - указаны скорость ветра в м/с - средняя за 10 мин, порывы в срок и между сроками (в фигурных скобках) и направление, откуда дует ветер: С - северный, СВ - северо-восточный, В - восточный, ЮВ - юго-восточный, Ю - южный, ЮЗ - юго-западный, З - западный, СЗ - северо-западный.
Видимость - горизонтальная дальность видимости в метрах или километрах. При видимости от 1 до 10 км при отсутствии осадков обычно наблюдается дымка, при ухудшении видимости до 1 км и менее - туман. В сухую погоду видимость может ухудшаться дымом, пылью или мглою.
Явления - указаны атмосферные явления, наблюдавшиеся в срок или в последний час перед сроком; фигурными скобками обозначены явления, наблюдавшиеся между сроками (за 1-3 часа до срока); квадратными скобками обозначены град или гололедные отложения с указанием их диаметра в мм.
Облачность - указаны через наклонную черту общая и нижняя облачность в баллах и высота нижней границы облаков в метрах; квадратными скобками обозначены формы облаков: Ci - перистые, Cs - перисто-слоистые, Cc - перисто-кучевые, Ac - высококучевые, As - высокослоистые, Sc - слоисто-кучевые, Ns - слоисто-дождевые, Cu - кучевые, Cb - кучево-дождевые. Подробнее классификацию облаков см. в Атласе облаков (PDF).
T - Температура воздуха - температура, измеренная на высоте 2 м над землей.
Td - Температура точки росы - температура, при понижении до которой содержащийся в воздухе водяной пар достигнет насыщения.
f - Относительная влажность воздуха - влажноcть воздуха, измеренная на высоте 2 м над землей.
Te - Эффективная температура - температура, которую ощущает одетый по сезону человек в тени. Характеристика душности погоды. При расчете учитывается влияние влажности воздуха и скорости ветра на теплоощущения человека.
Tes - Эффективная температура на солнце - температура, которую ощущает человек, с поправкой на солнечный нагрев. Характеристика знойности погоды. Зависит от высоты солнца над горизонтом, облачности и скорости ветра. Ночью, в пасмурную погоду, а также при ветре 12 м/с и более поправка равна нулю.
P - Атмосферное давление - приведенное к уровню моря атмосферное давление.
Po - Атмосферное давление - измеренное на уровне метеостанции атмосферное давление.
Tmin - Минимальная температура - минимум температуры воздуха на высоте 2 м над землей.
Tmax - Максимальная температура - максимум температуры воздуха на высоте 2 м над землей.
R - Количество осадков - Количество выпавших осадков за период времени, мм. При наведении курсора мыши на число - период времени, за который выпало указанное количество осадков.
R24 - Количество осадков - Количество выпавших осадков за 24 часа, мм.
S - Снежный покров - Высота снежного покрова, см. При наведении курсора мыши на число - состояние снежного покрова и степень покрытия местности в баллах.